Location: Rehoboth Beach
(38.7438°N, 75.1341°W)
Time: 05:02:26
(UTC-04:00)

Hubble Space Telescope - Visible Passes

Search period start: 30 April 2016 00:00
Search period end: 10 May 2016 00:00
Orbit: 539 x 543 km, 28.5° (Epoch: 28 April)

Date Brightness Start Highest point End Pass type
(mag) Time Alt. Az. Time Alt. Az. Time Alt. Az.
30 Apr 2.7 05:27:57 10° SSW 05:30:38 17° S 05:33:21 10° SE visible
01 May 2.6 05:18:04 10° SW 05:20:55 18° S 05:23:47 10° SE visible
02 May 2.5 05:08:42 12° SW 05:11:12 19° S 05:14:10 10° SE visible
03 May 2.4 04:59:30 14° SSW 05:01:29 19° S 05:04:30 10° SE visible
04 May 2.4 04:50:21 17° SSW 04:51:46 19° S 04:54:47 10° SE visible
05 May 2.3 04:41:15 18° SSW 04:42:03 19° S 04:45:01 10° SE visible
06 May 2.4 04:32:14 18° S 04:32:20 18° S 04:35:12 10° SE visible
07 May 2.6 04:23:19 16° S 04:23:19 16° S 04:25:19 10° SSE visible
08 May 3.0 04:14:32 13° SSE 04:14:32 13° SSE 04:15:20 10° SSE visible
